NOAA 16 DEB, 41256

Orbit data source: Space-Track

NOAA 16 DEB, 41256 is space debris in SSO originally from a launch on Thu, 21 Sep 2000 UTC launched from the Air Force Western Test Range (AFWTR). Debris objects in space refer to the collection of defunct objects orbiting the Earth. Examples of debris include non-operational satellites, rocket bodies, and fragments generated from explosions, collisions, or faulty payload assembly.

Loading next visibility...
Identifier
41256, 2000-055FG
Orbit
SSO
Country
Flag of USUS
Related business
Manufacturer
Unknown
Mission
Spacecraft
Bus & Motor
Unknown
Mass
Unknown
Launch date (UTC)
2000-09-21 (26 years ago)
Launch vehicle
Unknown
Launch site
Air Force Western Test Range (AFWTR)
Object type
Payload
Rocket body
Debris
Shape & HBR
Unknown shape, 0.1 m
Radar Cross Section
Medium (>0.1 m² and <1 m²)

Expand to show TLE details & history
Last TLE update: 3 days ago

TLE from 3 days ago
0 NOAA 16 DEB
1 41256U 00055FG  26170.54462133  .00007958  00000-0  17568-2 0  9990
2 41256  99.0855  79.1244 0013439 127.1167 233.1259 14.57559656544526
Epoch: 2026-06-19T13:04Z
TLE epoch observation values (Epoch: 2026-06-19T13:04:15.282Z)
Latitude
-0.00005°
Longitude
-24.71134°
Altitude
709.736 km
Speed
7.498 km/s
True Right ascension
05h 16m 29s
True Declination
0° 00' 00"
Sunlit
Object was in daylight at epoch
Visualization orbit readout
Latitude
Unknown
Longitude
Unknown
Altitude
Unknown
Speed
Unknown
Apparent Right ascension
Unknown
Apparent Declination
Unknown
Sunlit
N/A
Visualization observer readout
Local Sidereal Time
21:36:27
Azimuth
Unknown
Elevation
Unknown
Doppler factor
Unknown
Orbital elements
Apogee altitude
707.702 km
Perigee altitude
688.682 km
Semi-major axis
7,076.329 km
Eccentricity
0.00134
Inclination
99.0855°
RAAN
79.1244°
Arg. of periapsis
127.1167°
True anomaly
233.00283°
Mean anomaly
233.1259°
Eccentric anomaly
233.06435°
Mean motion
3.64612 °/min
Orbital period
98.74 mins
BSTAR
0.0017568
Loading maneuver chart data...
Computing Atmospheric mass density...
Loading historical data...
Loading historical data...
Loading historical data...
Loading historical data...
Loading historical data...
Loading historical data...
Loading historical data...

Documentation

Showing up to 5 results
|